Childress, TX

2:31 AM CDT on July 27, 2017 (GMT -0500)
Childress Municipal

Weather History for KCDS - February, 2013

Change the Weather History Date:

Thursday, February 21, 2013

  Actual Average Record
Temperature  
Mean Temperature 38 °F 47 °F  
Max Temperature 48 °F 60 °F 88 °F (1996)
Min Temperature 28 °F 34 °F 12 °F (1939)
Degree Days  
Heating Degree Days 27 19  
Month to date heating degree days 366 435  
Since 1 July heating degree days 2179 2438  
Cooling Degree Days 0 0  
Month to date cooling degree days 0 0  
Year to date cooling degree days 0 0  
Moisture  
Dew Point 31 °F    
Average Humidity 79    
Maximum Humidity 96    
Minimum Humidity 62    
Precipitation  
Precipitation 0.18 in 0.04 in 0.90 in (1919)
Month to date precipitation 1.41 0.77  
Year to date precipitation 2.90 1.50  
Snow  
Snow 0.00 in 0.10 in - ()
Month to date snowfall 0.0 1.0  
Since 1 July snowfall T 6.3  
Snow Depth -    
Sea Level Pressure  
Sea Level Pressure 29.74 in    
Wind  
Wind Speed 12 mph (ENE)    
Max Wind Speed 29 mph    
Max Gust Speed 35 mph    
Visibility 6 miles    
Events Fog , Rain , Thunderstorm    
T = Trace of Precipitation, MM = Missing Value Source: NWS Daily Summary

Daily Weather History Graph

Daily Weather History Graph

Search for Another Location

Airport or City:

Trip Planner

Search our weather history database for the weather conditions in past years. The results will help you decide how hot, cold, wet, or windy it might be!

Date:

Astronomy

Feb. 21, 2013 Rise Set
Actual Time 7:19 AM CST 6:30 PM CST
Civil Twilight 6:54 AM CST 6:55 PM CST
Nautical Twilight 6:24 AM CST 7:25 PM CST
Astronomical Twilight 5:55 AM CST 7:54 PM CST
Moon 2:53 PM CST (2/21) 4:18 AM CST (2/21)
Length of Visible Light 12h 01m
Length of Day
11h 11m
Waxing Gibbous, 84% of the Moon is Illuminated
Feb 21
Waxing Gibbous
Feb 25
Full
Mar 4
Last Quarter
Mar 11
New
Mar 19
First Quarter

Hourly Weather History & Observations

Time (CST) Temp. Windchill Dew Point Humidity Pressure Visibility Wind Dir Wind Speed Gust Speed Precip Events Conditions
12:05 AM 35.6 °F 27.5 °F 33.8 °F 93% 29.74 in 8.0 mi East 11.5 mph - 0.00 in Rain , Thunderstorm Light Thunderstorms and Rain
12:21 AM 35.6 °F 26.6 °F 33.8 °F 93% 29.70 in 1.8 mi ESE 13.8 mph 21.9 mph 0.01 in Rain , Thunderstorm Light Rain
12:28 AM 35.6 °F 27.5 °F 33.8 °F 93% 29.69 in 1.8 mi East 11.5 mph 21.9 mph 0.01 in Rain Light Rain
12:38 AM 35.6 °F 28.6 °F 33.8 °F 93% 29.71 in 2.0 mi East 9.2 mph - 0.02 in Rain Light Rain
12:53 AM 35.1 °F 28.6 °F 33.1 °F 92% 29.72 in 2.0 mi East 8.1 mph - 0.02 in Rain Light Rain
1:53 AM 35.1 °F 27.9 °F 33.1 °F 92% 29.75 in 2.5 mi NNE 9.2 mph - 0.04 in Rain Light Rain
2:35 AM 33.8 °F 25.8 °F 32.0 °F 93% 29.72 in 4.0 mi NNE 10.4 mph - 0.05 in Rain Light Rain
2:53 AM 34.0 °F 26.0 °F 32.0 °F 92% 29.72 in 5.0 mi NNE 10.4 mph - 0.06 in Rain Light Rain
3:53 AM 33.1 °F 24.9 °F 30.9 °F 92% 29.71 in 4.0 mi East 10.4 mph - 0.04 in Rain Rain
4:31 AM 33.8 °F 25.3 °F 30.2 °F 87% 29.69 in 10.0 mi ENE 11.5 mph - 0.02 in   Overcast
4:53 AM 33.1 °F 25.5 °F 30.9 °F 92% 29.70 in 10.0 mi NE 9.2 mph - 0.02 in   Overcast
5:26 AM 33.8 °F 25.8 °F 30.2 °F 87% 29.68 in 2.0 mi NE 10.4 mph - N/A   Overcast
5:44 AM 33.8 °F 27.0 °F 30.2 °F 87% 29.66 in 4.0 mi ENE 8.1 mph - N/A   Overcast
5:53 AM 33.1 °F 25.5 °F 30.9 °F 92% 29.68 in 9.0 mi ENE 9.2 mph - N/A   Overcast
6:53 AM 32.0 °F 23.6 °F 30.9 °F 96% 29.67 in 7.0 mi ESE 10.4 mph - N/A   Overcast
7:49 AM 32.0 °F 23.6 °F 30.2 °F 93% 29.69 in 1.8 mi SSE 10.4 mph - N/A   Overcast
7:53 AM 32.0 °F 23.0 °F 30.9 °F 96% 29.71 in 1.5 mi SE 11.5 mph - N/A   Overcast
8:16 AM 32.0 °F 24.2 °F 30.2 °F 93% 29.69 in 3.0 mi SE 9.2 mph - N/A   Overcast
8:25 AM 32.0 °F 23.6 °F 30.2 °F 93% 29.69 in 2.0 mi SSE 10.4 mph - N/A   Overcast
8:32 AM 32.0 °F 23.0 °F 30.2 °F 93% 29.69 in 1.2 mi SSE 11.5 mph - N/A   Overcast
8:42 AM 32.0 °F 23.6 °F 30.2 °F 93% 29.69 in 0.5 mi South 10.4 mph - N/A Fog Fog
8:53 AM 32.0 °F 23.6 °F 30.9 °F 96% 29.71 in 0.8 mi South 10.4 mph - N/A   Overcast
9:49 AM 33.8 °F 25.8 °F 32.0 °F 93% 29.68 in 1.0 mi South 10.4 mph - N/A   Overcast
9:53 AM 33.1 °F 24.9 °F 32.0 °F 96% 29.70 in 0.5 mi South 10.4 mph - N/A Fog Fog
10:10 AM 33.8 °F 25.8 °F 32.0 °F 93% 29.68 in 1.0 mi SSE 10.4 mph - N/A   Overcast
10:23 AM 35.6 °F 28.0 °F 33.8 °F 93% 29.67 in 3.0 mi South 10.4 mph - N/A   Overcast
10:37 AM 35.6 °F 27.1 °F 35.6 °F 100% 29.68 in 9.0 mi South 12.7 mph - N/A   Overcast
10:53 AM 37.4 °F 28.5 °F 33.8 °F 87% 29.67 in 10.0 mi SSW 15.0 mph - N/A   Overcast
11:40 AM 42.8 °F 36.6 °F 37.4 °F 81% 29.67 in 10.0 mi SSW 11.5 mph - N/A   Mostly Cloudy
11:53 AM 43.0 °F 35.7 °F 37.9 °F 82% 29.67 in 10.0 mi SSW 15.0 mph - N/A   Partly Cloudy
12:53 PM 48.0 °F - 37.0 °F 66% 29.64 in 10.0 mi Calm Calm - N/A   Overcast
1:53 PM 46.9 °F - 37.9 °F 71% 29.66 in 10.0 mi North 13.8 mph - N/A   Mostly Cloudy
2:53 PM 48.0 °F - 37.9 °F 68% 29.70 in 10.0 mi NW 19.6 mph 23.0 mph N/A   Mostly Cloudy
3:33 PM 44.6 °F 35.7 °F 35.6 °F 71% 29.73 in 10.0 mi NNW 24.2 mph - N/A   Mostly Cloudy
3:42 PM 44.6 °F 35.9 °F 35.6 °F 71% 29.74 in 10.0 mi NNW 23.0 mph - N/A   Overcast
3:53 PM 46.0 °F 38.0 °F 36.0 °F 68% 29.75 in 10.0 mi NNW 21.9 mph 26.5 mph N/A   Overcast
4:53 PM 42.1 °F 32.3 °F 30.9 °F 65% 29.82 in 10.0 mi NNW 24.2 mph 32.2 mph N/A   Clear
5:53 PM 37.9 °F 29.2 °F 28.0 °F 68% 29.87 in 10.0 mi North 15.0 mph - N/A   Clear
6:53 PM 34.0 °F 26.0 °F 25.0 °F 70% 29.90 in 10.0 mi NNE 10.4 mph - N/A   Clear
7:53 PM 30.9 °F 19.8 °F 23.0 °F 72% 29.92 in 10.0 mi North 16.1 mph - N/A   Clear
8:53 PM 28.9 °F 19.8 °F 21.0 °F 72% 29.99 in 10.0 mi North 10.4 mph - N/A   Clear
9:53 PM 28.0 °F 17.5 °F 21.0 °F 75% 30.02 in 10.0 mi North 12.7 mph - N/A   Clear
10:53 PM 28.0 °F 18.6 °F 19.9 °F 72% 30.04 in 10.0 mi North 10.4 mph - N/A   Clear
11:53 PM 28.0 °F 18.1 °F 18.0 °F 66% 30.04 in 10.0 mi North 11.5 mph - N/A   Clear